Location: Unspecified
(52.1971°N, 0.0000°E)
Time: 07:08:23
(UTC+00:00)

YUBILEINY - Pass Details

Date: 19 December 2019
Orbit: 1478 x 1509 km, 82.5° (Epoch: 19 January)

Event Time Altitude Azimuth Distance (km) Brightness Sun altitude
Rises 03:59:13 0° 343° (NNW) 4,613 ? -36.2°
Reaches altitude 10° 04:04:56 10° 12° (NNE) 3,630 ? -35.3°
Maximum altitude 04:08:02 12° 34° (NNE) 3,464 ? -34.8°
Drops below altitude 10° 04:11:08 10° 55° (NE) 3,628 ? -34.3°
Sets 04:16:48 0° 85° (E) 4,608 ? -33.5°
